KI6IKQ Weather Reports


time (UTC)temp
C
wind
direction
speed
KPH
gust
KPH
rain 1hr
cm
rain 24hr
cm
rain mn
cm
humidity
%
barometer
mb
20260507200003 25 326 6.4 14.5 0.00 0.00 0.00 59 1016.7
20260507195403 25 318 8.0 14.5 0.00 0.00 0.00 60 1016.8
20260507194503 25 315 6.4 17.7 0.00 0.00 0.00 61 1017.0
20260507193603 25 322 4.8 14.5 0.00 0.00 0.00 62 1017.0
20260507192703 25 314 4.8 12.9 0.00 0.00 0.00 61 1016.9
20260507191803 25 299 4.8 12.9 0.00 0.00 0.00 62 1017.1
20260507190903 24 331 6.4 9.7 0.00 0.00 0.00 62 1017.3
20260507190004 24 327 6.4 16.1 0.00 0.00 0.00 62 1017.4
20260507185403 24 321 4.8 16.1 0.00 0.00 0.00 64 1017.3
20260507184504 23 310 4.8 12.9 0.00 0.00 0.00 65 1017.5
20260507183603 23 270 3.2 11.3 0.00 0.00 0.00 64 1017.6
20260507182703 23 306 4.8 12.9 0.00 0.00 0.00 65 1017.6
20260507181803 23 1 4.8 16.1 0.00 0.00 0.00 64 1017.6
20260507180903 23 327 4.8 11.3 0.00 0.00 0.00 67 1017.6
20260507180003 22 311 3.2 9.7 0.00 0.00 0.00 68 1017.7
20260507175403 22 301 4.8 11.3 0.00 0.00 0.00 68 1017.7
20260507174524 22 333 4.8 12.9 0.00 0.00 0.00 70 1017.8
20260507173603 21 310 4.8 12.9 0.00 0.00 0.00 70 1017.8
20260507172703 21 300 4.8 8.0 0.00 0.00 0.00 70 1017.8
20260507171803 21 298 4.8 11.3 0.00 0.00 0.00 71 1017.8
20260507170903 20 285 4.8 9.7 0.00 0.00 0.00 72 1017.9
20260507170024 20 281 4.8 9.7 0.00 0.00 0.00 74 1018.0
20260507165403 20 302 4.8 8.0 0.00 0.00 0.00 74 1018.0
20260507164503 20 304 3.2 9.7 0.00 0.00 0.00 76 1018.2
20260507163624 19 301 3.2 8.0 0.00 0.00 0.00 77 1018.1
20260507162703 18 294 3.2 8.0 0.00 0.00 0.00 78 1018.1
20260507161824 18 296 3.2 8.0 0.00 0.00 0.00 79 1018.2
20260507160903 18 296 1.6 4.8 0.00 0.00 0.00 81 1018.4
20260507160003 17 300 3.2 6.4 0.00 0.00 0.00 82 1018.3
20260507155403 17 313 3.2 8.0 0.00 0.00 0.00 83 1018.4
20260507154503 17 319 3.2 6.4 0.00 0.00 0.00 84 1018.3
20260507153603 16 319 4.8 8.0 0.00 0.00 0.00 86 1018.4
20260507152703 16 302 4.8 11.3 0.00 0.00 0.00 87 1018.4
20260507151803 15 285 3.2 9.7 0.00 0.00 0.00 88 1018.6
20260507150903 15 289 4.8 11.3 0.00 0.00 0.00 88 1018.5
20260507150003 15 300 4.8 8.0 0.00 0.00 0.00 89 1018.5
20260507145403 15 287 4.8 11.3 0.00 0.00 0.00 89 1018.6
20260507144503 14 287 4.8 9.7 0.00 0.00 0.00 90 1018.5
20260507143603 14 302 4.8 11.3 0.00 0.00 0.00 90 1018.4
20260507142724 14 306 4.8 11.3 0.00 0.00 0.00 91 1018.4
20260507141824 13 297 3.2 4.8 0.00 0.00 0.00 91 1018.3
20260507140924 13 295 1.6 4.8 0.00 0.00 0.00 92 1018.3
20260507140024 12 296 1.6 4.8 0.00 0.00 0.00 92 1018.1
20260507135424 12 294 1.6 4.8 0.00 0.00 0.00 91 1017.9
20260507134524 12 297 1.6 6.4 0.00 0.00 0.00 91 1017.8
20260507133624 12 309 1.6 6.4 0.00 0.00 0.00 91 1017.8
20260507132724 12 322 1.6 6.4 0.00 0.00 0.00 91 1017.8
20260507131824 12 311 1.6 4.8 0.00 0.00 0.00 90 1017.7
20260507130926 12 305 1.6 4.8 0.00 0.00 0.00 90 1017.6
20260507130003 12 308 0.0 3.2 0.00 0.00 0.00 90 1017.6
20260507125403 12 309 1.6 6.4 0.00 0.00 0.00 90 1017.4
20260507124503 12 303 1.6 6.4 0.00 0.00 0.00 90 1017.5
20260507123603 12 303 1.6 4.8 0.00 0.00 0.00 90 1017.5
20260507122705 12 303 1.6 4.8 0.00 0.00 0.00 90 1017.4
20260507121824 12 303 0.0 3.2 0.00 0.00 0.00 90 1017.5
20260507120924 12 302 1.6 4.8 0.00 0.00 0.00 90 1017.4
20260507120024 12 302 1.6 4.8 0.00 0.00 0.00 90 1017.5
20260507115424 12 300 1.6 3.2 0.00 0.00 0.00 90 1017.5
20260507114524 12 306 1.6 3.2 0.00 0.00 0.00 89 1017.6
20260507113603 12 307 1.6 4.8 0.00 0.00 0.00 89 1017.5
20260507112703 12 300 1.6 4.8 0.00 0.00 0.00 89 1017.5
20260507111803 12 303 1.6 4.8 0.00 0.00 0.00 89 1017.5
20260507110903 12 313 1.6 3.2 0.00 0.00 0.00 88 1017.5
20260507110003 12 287 1.6 6.4 0.00 0.00 0.00 88 1017.3
20260507105403 12 272 3.2 6.4 0.00 0.00 0.00 88 1017.4
20260507104504 12 271 1.6 6.4 0.00 0.00 0.00 88 1017.4
20260507103603 12 271 1.6 4.8 0.00 0.00 0.00 88 1017.4
20260507102703 13 271 1.6 6.4 0.00 0.00 0.00 87 1017.4
20260507101803 13 271 1.6 6.4 0.00 0.00 0.00 87 1017.4
20260507100903 13 276 3.2 9.7 0.00 0.00 0.00 87 1017.3
20260507100004 13 297 3.2 6.4 0.00 0.00 0.00 87 1017.4
20260507095403 13 296 3.2 6.4 0.00 0.00 0.00 87 1017.3
20260507094503 13 296 3.2 6.4 0.00 0.00 0.00 87 1017.4
20260507093603 13 298 1.6 6.4 0.00 0.00 0.00 87 1017.3
20260507092703 13 299 1.6 6.4 0.00 0.00 0.00 87 1017.5
20260507091804 14 301 0.0 4.8 0.00 0.00 0.00 88 1017.6
20260507090903 14 301 0.0 3.2 0.00 0.00 0.00 87 1017.5
20260507090004 14 301 0.0 3.2 0.00 0.00 0.00 87 1017.5
20260507085403 14 301 0.0 3.2 0.00 0.00 0.00 87 1017.5
20260507084524 14 301 1.6 3.2 0.00 0.00 0.00 87 1017.6
20260507083603 14 301 1.6 3.2 0.00 0.00 0.00 86 1017.4
20260507082703 14 304 1.6 8.0 0.00 0.00 0.00 86 1017.4
20260507081803 14 308 1.6 8.0 0.00 0.00 0.00 85 1017.4
20260507080903 15 313 1.6 4.8 0.00 0.00 0.00 85 1017.4
20260507080003 15 313 1.6 4.8 0.00 0.00 0.00 84 1017.4
20260507075403 15 313 1.6 4.8 0.00 0.00 0.00 84 1017.4
20260507074503 15 313 1.6 4.8 0.00 0.00 0.00 84 1017.5
20260507073603 15 313 1.6 4.8 0.00 0.00 0.00 84 1017.6
20260507072703 15 298 3.2 9.7 0.00 0.00 0.00 83 1017.6
20260507071803 15 290 3.2 6.4 0.00 0.00 0.00 83 1017.5
20260507070903 15 290 3.2 8.0 0.00 0.00 0.00 83 1017.5
20260507070005 15 290 3.2 6.4 0.00 0.00 0.00 82 1017.4
20260507065403 15 290 3.2 6.4 0.00 0.00 0.00 82 1017.4
20260507064503 15 290 1.6 4.8 0.00 0.00 0.00 82 1017.4
20260507063603 15 290 1.6 6.4 0.00 0.00 0.00 81 1017.3
20260507062703 15 290 1.6 4.8 0.00 0.00 0.00 80 1017.3
20260507061803 16 290 1.6 4.8 0.00 0.00 0.00 81 1017.3
20260507060903 16 290 1.6 4.8 0.00 0.00 0.00 80 1017.2
20260507060003 16 290 3.2 6.4 0.00 0.00 0.00 79 1017.3
20260507055403 16 290 3.2 6.4 0.00 0.00 0.00 79 1017.4
20260507054503 16 289 1.6 8.0 0.00 0.00 0.00 79 1017.3
20260507053603 17 290 3.2 8.0 0.00 0.00 0.00 79 1017.4
20260507052703 17 279 3.2 6.4 0.00 0.00 0.00 78 1017.5
20260507051803 17 271 3.2 6.4 0.00 0.00 0.00 78 1017.5
20260507050903 17 280 3.2 9.7 0.00 0.00 0.00 77 1017.4
20260507050003 17 277 1.6 9.7 0.00 0.00 0.00 79 1017.4
20260507045403 18 277 1.6 4.8 0.00 0.00 0.00 78 1017.3
20260507044503 18 277 1.6 3.2 0.00 0.00 0.00 78 1017.3
20260507043603 18 277 1.6 4.8 0.00 0.00 0.00 77 1017.3
20260507042703 18 279 1.6 6.4 0.00 0.00 0.00 77 1017.3
20260507041806 18 291 1.6 9.7 0.00 0.00 0.00 76 1017.1
20260507040903 19 271 3.2 6.4 0.00 0.00 0.00 75 1017.2
20260507040003 20 279 3.2 11.3 0.00 0.00 0.00 74 1017.2
20260507035403 20 308 3.2 11.3 0.00 0.00 0.00 73 1017.1
20260507034503 20 290 4.8 12.9 0.00 0.00 0.00 72 1017.0
20260507033603 21 294 4.8 9.7 0.00 0.00 0.00 71 1017.0
20260507032703 21 299 4.8 11.3 0.00 0.00 0.00 69 1016.9
20260507031803 22 288 4.8 8.0 0.00 0.00 0.00 66 1016.8
20260507030903 22 286 3.2 8.0 0.00 0.00 0.00 64 1016.7
20260507030003 23 285 3.2 6.4 0.00 0.00 0.00 62 1016.5
20260507025403 23 285 4.8 6.4 0.00 0.00 0.00 61 1016.4
20260507024503 23 276 4.8 6.4 0.00 0.00 0.00 61 1016.3
20260507023603 24 281 4.8 11.3 0.00 0.00 0.00 59 1016.3
20260507022703 25 295 4.8 9.7 0.00 0.00 0.00 58 1016.3
20260507021824 25 297 4.8 14.5 0.00 0.00 0.00 57 1016.2
20260507020903 25 303 4.8 11.3 0.00 0.00 0.00 56 1016.1
20260507020003 25 304 4.8 12.9 0.00 0.00 0.00 56 1016.1
20260507015403 25 302 6.4 12.9 0.00 0.00 0.00 55 1016.1
20260507014503 25 303 6.4 12.9 0.00 0.03 0.00 55 1016.2
20260507013603 25 323 6.4 12.9 0.00 0.03 0.00 53 1016.2
20260507012703 26 316 6.4 12.9 0.00 0.03 0.00 53 1016.1
20260507011803 26 318 4.8 9.7 0.00 0.03 0.00 53 1016.1
20260507010903 26 304 6.4 16.1 0.00 0.03 0.00 52 1016.1
20260507010003 26 303 6.4 16.1 0.00 0.03 0.00 52 1016.1
20260507005424 26 320 8.0 16.1 0.00 0.03 0.00 52 1016.2
20260507004503 26 326 6.4 14.5 0.00 0.03 0.00 51 1016.2
20260507003603 26 323 6.4 14.5 0.00 0.03 0.00 52 1016.2
20260507002724 26 330 8.0 14.5 0.00 0.03 0.00 51 1016.2
20260507001803 26 326 4.8 14.5 0.00 0.03 0.00 50 1016.2
20260507000903 26 326 6.4 14.5 0.00 0.03 0.00 51 1016.2
20260507000003 26 310 4.8 12.9 0.00 0.03 0.00 51 1016.2
20260506235403 26 305 4.8 12.9 0.00 0.03 0.00 51 1016.2
20260506234503 26 319 4.8 14.5 0.00 0.03 0.00 51 1016.3
20260506233603 26 313 4.8 14.5 0.00 0.03 0.00 52 1016.5
20260506232703 26 328 6.4 14.5 0.00 0.03 0.00 52 1016.5
20260506231824 26 336 8.0 17.7 0.00 0.03 0.00 53 1016.6
20260506230903 26 330 6.4 14.5 0.00 0.03 0.00 52 1016.7
20260506230003 26 298 6.4 20.9 0.00 0.03 0.00 51 1016.8
20260506225403 26 296 4.8 12.9 0.00 0.03 0.00 53 1016.8
20260506224503 25 313 6.4 16.1 0.00 0.03 0.00 53 1016.9
20260506223603 25 342 8.0 19.3 0.00 0.03 0.00 53 1017.0
20260506222703 25 323 4.8 14.5 0.00 0.03 0.00 52 1017.2
20260506221803 25 336 6.4 16.1 0.00 0.03 0.00 52 1017.3
20260506220903 25 333 6.4 14.5 0.00 0.03 0.00 53 1017.6
20260506220003 25 334 6.4 14.5 0.00 0.03 0.00 54 1017.7
20260506215403 25 356 4.8 12.9 0.00 0.03 0.00 53 1017.7
20260506214503 25 309 6.4 16.1 0.00 0.03 0.00 53 1017.9
20260506213603 25 323 4.8 12.9 0.00 0.03 0.00 54 1018.0
20260506212703 25 343 4.8 14.5 0.00 0.03 0.00 53 1018.0
20260506211803 24 299 4.8 12.9 0.00 0.03 0.00 55 1018.1
20260506210903 24 329 4.8 14.5 0.00 0.03 0.00 54 1018.1
20260506210003 24 339 4.8 14.5 0.00 0.03 0.00 53 1018.2
20260506205403 24 330 3.2 12.9 0.00 0.03 0.00 55 1018.3
20260506204503 23 327 4.8 14.5 0.00 0.03 0.00 54 1018.6
20260506203603 23 327 6.4 16.1 0.00 0.03 0.00 57 1018.7
20260506202703 23 323 4.8 12.9 0.00 0.03 0.00 56 1018.9
20260506201803 23 329 4.8 12.9 0.00 0.03 0.00 58 1019.0
20260506200903 22 343 6.4 14.5 0.00 0.03 0.00 57 1019.1